Location: *
(18.5200°S, 46.4500°E)
Time: 11:11:44
(UTC+00:00)

Envisat - Pass Details

Date: 19 July 2019
Orbit: 764 x 766 km, 98.1° (Epoch: 21 August)

Event Time Altitude Azimuth Distance (km) Brightness Sun altitude
Exits shadow 16:24:18 - 186° (S) 2,641 5.7 -25.4°
Reaches altitude 10° 16:25:11 10° 189° (S) 2,318 5.4 -25.6°
Maximum altitude 16:29:50 37° 255° (WSW) 1,192 4.4 -26.7°
Drops below altitude 10° 16:34:28 10° 321° (NW) 2,298 6.1 -27.8°
Sets 16:36:54 0° 329° (NNW) 3,217 6.8 -28.3°
